Shelton, WA

3:42 PM PST on December 15, 2017 (GMT -0800)
Sanderson

Weather History for KSHN - September, 2013

Change the Weather History Date:

Friday, September 27, 2013

  Actual Average Record
Temperature  
Mean Temperature 52 °F -  
Max Temperature 57 °F 68 °F 91 °F (2003)
Min Temperature 46 °F 47 °F 30 °F (1972)
Degree Days  
Heating Degree Days 14    
Growing Degree Days 2 (Base 50)    
Moisture  
Dew Point 51 °F    
Average Humidity 96    
Maximum Humidity 100    
Minimum Humidity 93    
Precipitation  
Precipitation 0.50 in - - ()
Sea Level Pressure  
Sea Level Pressure 29.96 in    
Wind  
Wind Speed 3 mph (SSE)    
Max Wind Speed 8 mph    
Max Gust Speed -    
Visibility 6 miles    
Events Rain    
Averages and records for this station are not official NWS values.
T = Trace of Precipitation, MM = Missing Value Source: NWS Daily Summary

Daily Weather History Graph

Daily Weather History Graph

Search for Another Location

Airport or City:

Trip Planner

Search our weather history database for the weather conditions in past years. The results will help you decide how hot, cold, wet, or windy it might be!

Date:

Astronomy

Sep. 27, 2013 Rise Set
Actual Time 7:06 AM PDT 6:59 PM PDT
Civil Twilight 6:36 AM PDT 7:29 PM PDT
Nautical Twilight 6:00 AM PDT 8:05 PM PDT
Astronomical Twilight 5:23 AM PDT 8:41 PM PDT
Moon No Moon Rise 3:02 PM PDT (9/27)
Length of Visible Light 12h 53m
Length of Day
11h 52m
Last Quarter, 44% of the Moon is Illuminated
Sep 27
Last Quarter
Oct 4
New
Oct 11
First Quarter
Oct 18
Full
Oct 26
Last Quarter

Hourly Weather History & Observations

Time (PDT) Temp. Dew Point Humidity Pressure Visibility Wind Dir Wind Speed Gust Speed Precip Events Conditions
12:53 AM 46.9 °F 46.0 °F 97% 30.12 in 6.0 mi Calm Calm - N/A   Clear
1:53 AM 48.9 °F 46.9 °F 93% 30.11 in 10.0 mi SW 6.9 mph - N/A   Mostly Cloudy
2:53 AM 50.0 °F 48.0 °F 93% 30.09 in 10.0 mi SSW 4.6 mph - N/A   Clear
3:53 AM 48.9 °F 46.9 °F 93% 30.07 in 10.0 mi Calm Calm - N/A   Overcast
4:18 AM 48.2 °F 48.2 °F 100% 30.06 in 10.0 mi Calm Calm - N/A   Overcast
4:28 AM 48.2 °F 48.2 °F 100% 30.05 in 10.0 mi SW 3.5 mph - N/A   Overcast
4:53 AM 50.0 °F 48.0 °F 93% 30.06 in 10.0 mi Calm Calm - N/A   Overcast
5:10 AM 50.0 °F 48.2 °F 94% 30.04 in 10.0 mi Calm Calm - N/A   Overcast
5:53 AM 50.0 °F 48.0 °F 93% 30.05 in 10.0 mi Calm Calm - 0.00 in Rain Light Rain
6:53 AM 50.0 °F 48.0 °F 93% 30.02 in 8.0 mi ESE 4.6 mph - 0.00 in Rain Light Rain
7:46 AM 50.0 °F 48.2 °F 94% 30.02 in 2.0 mi Calm Calm - 0.04 in Rain Rain
7:53 AM 50.0 °F 48.9 °F 96% 30.02 in 2.0 mi Calm Calm - 0.05 in Rain Rain
8:05 AM 50.0 °F 48.2 °F 94% 30.01 in 1.8 mi ESE 3.5 mph - 0.03 in Rain Light Rain
8:17 AM 50.0 °F 50.0 °F 100% 30.02 in 1.0 mi Calm Calm - 0.06 in Rain Rain
8:36 AM 50.0 °F 48.2 °F 94% 30.02 in 1.5 mi Calm Calm - 0.11 in Rain Rain
8:53 AM 51.1 °F 50.0 °F 96% 30.01 in 2.0 mi SE 4.6 mph - 0.15 in Rain Rain
9:04 AM 51.8 °F 50.0 °F 94% 30.01 in 4.0 mi SE 5.8 mph - 0.01 in Rain Light Rain
9:18 AM 51.8 °F 50.0 °F 94% 30.00 in 2.5 mi SE 5.8 mph - 0.01 in Rain Light Rain
9:24 AM 51.8 °F 50.0 °F 94% 30.00 in 1.8 mi SSE 5.8 mph - 0.02 in Rain Light Rain
9:53 AM 51.1 °F 50.0 °F 96% 30.00 in 1.5 mi SE 6.9 mph - 0.03 in Rain Light Rain
10:03 AM 51.8 °F 50.0 °F 94% 29.98 in 1.5 mi SE 8.1 mph - 0.01 in Rain Light Rain
10:21 AM 51.8 °F 50.0 °F 94% 29.98 in 1.8 mi Variable 6.9 mph - 0.04 in Rain Light Rain
10:29 AM 51.8 °F 50.0 °F 94% 29.98 in 2.0 mi SE 8.1 mph - 0.04 in Rain Light Rain
10:38 AM 51.8 °F 50.0 °F 94% 29.98 in 1.5 mi SE 5.8 mph - 0.05 in Rain Light Rain
10:53 AM 52.0 °F 50.0 °F 93% 29.99 in 1.2 mi SE 6.9 mph - 0.06 in Rain Rain
11:31 AM 51.8 °F 51.8 °F 100% 29.97 in 3.0 mi SE 4.6 mph - 0.04 in Rain Light Rain
11:41 AM 51.8 °F 51.8 °F 100% 29.96 in 1.8 mi SE 5.8 mph - 0.05 in Rain Light Rain
11:53 AM 52.0 °F 51.1 °F 97% 29.97 in 1.2 mi SE 5.8 mph - 0.06 in Rain Light Rain
12:44 PM 51.8 °F 51.8 °F 100% 29.94 in 1.2 mi ESE 3.5 mph - 0.06 in Rain Light Rain
12:53 PM 52.0 °F 51.1 °F 97% 29.95 in 1.0 mi East 3.5 mph - 0.07 in Rain Light Rain
1:37 PM 53.6 °F 51.8 °F 94% 29.93 in 1.5 mi Calm Calm - 0.05 in Rain Light Rain
1:51 PM 53.6 °F 51.8 °F 94% 29.93 in 1.5 mi Calm Calm - 0.06 in Rain Light Rain
1:53 PM 54.0 °F 52.0 °F 93% 29.94 in 1.5 mi Calm Calm - 0.06 in Rain Light Rain
1:59 PM 53.6 °F 53.6 °F 100% 29.93 in 2.0 mi SSE 3.5 mph - 0.01 in Rain Light Rain
2:06 PM 53.6 °F 53.6 °F 100% 29.93 in 3.0 mi Calm Calm - 0.01 in Rain Light Rain
2:23 PM 53.6 °F 53.6 °F 100% 29.92 in 7.0 mi Calm Calm - 0.01 in   Overcast
2:35 PM 53.6 °F 53.6 °F 100% 29.92 in 2.5 mi SE 3.5 mph - 0.01 in   Overcast
2:43 PM 53.6 °F 53.6 °F 100% 29.92 in 2.5 mi SSE 4.6 mph - 0.01 in   Overcast
2:53 PM 54.0 °F 53.1 °F 97% 29.93 in 5.0 mi SSE 4.6 mph - 0.01 in   Overcast
3:08 PM 53.6 °F 53.6 °F 100% 29.92 in 2.0 mi Calm Calm - 0.01 in Rain Light Rain
3:17 PM 55.4 °F 53.6 °F 94% 29.92 in 6.0 mi SSE 3.5 mph - 0.01 in Rain Light Rain
3:25 PM 55.4 °F 53.6 °F 94% 29.92 in 10.0 mi Calm Calm - 0.01 in   Overcast
3:38 PM 55.4 °F 53.6 °F 94% 29.92 in 10.0 mi SSW 4.6 mph - 0.01 in   Overcast
3:53 PM 55.0 °F 54.0 °F 96% 29.93 in 7.0 mi SW 4.6 mph - 0.01 in Rain Light Rain
4:53 PM 55.9 °F 55.0 °F 97% 29.92 in 10.0 mi SSE 3.5 mph - 0.00 in   Overcast
5:00 PM 55.4 °F 55.4 °F 100% 29.91 in 10.0 mi South 3.5 mph - N/A   Overcast
5:21 PM 55.4 °F 55.4 °F 100% 29.91 in 10.0 mi Calm Calm - N/A   Overcast
5:32 PM 55.4 °F 53.6 °F 94% 29.91 in 10.0 mi Calm Calm - N/A   Overcast
5:53 PM 57.0 °F 55.0 °F 93% 29.91 in 10.0 mi SSW 4.6 mph - 0.00 in Rain Light Rain
6:53 PM 55.9 °F 54.0 °F 93% 29.90 in 10.0 mi SSW 3.5 mph - 0.00 in   Partly Cloudy
7:53 PM 54.0 °F 53.1 °F 97% 29.90 in 10.0 mi SSW 3.5 mph - N/A   Mostly Cloudy
8:53 PM 54.0 °F 52.0 °F 93% 29.88 in 10.0 mi SSW 3.5 mph - N/A   Mostly Cloudy
9:53 PM 53.1 °F 52.0 °F 96% 29.87 in 10.0 mi Calm Calm - N/A   Mostly Cloudy
10:51 PM 53.6 °F 51.8 °F 94% 29.86 in 10.0 mi Calm Calm - N/A   Overcast
10:53 PM 53.1 °F 52.0 °F 96% 29.86 in 9.0 mi Calm Calm - N/A   Overcast
11:18 PM 53.6 °F 51.8 °F 94% 29.84 in 6.0 mi SE 4.6 mph - N/A   Overcast
11:53 PM 53.1 °F 52.0 °F 96% 29.85 in 10.0 mi SSE 3.5 mph - N/A   Overcast